Flag for France Weather past 2 weeks in Amiens, France

Now
30 °F

Clear.


Feels Like: 18 °F
Forecast: 23 / 42 °F
Wind: 20 mph from Northeast

Location: Beauvais Airport

Current Time: Dec 28, 2014 at 2:14:43 PM

Latest Report: Dec 28, 2014 at 1:30 PM


Visibility: N/A

Pressure: 30.33 "Hg

Humidity: 69%

Dew point: 21 °F

Location of AmiensLocation

Historic Weather in Amiens — Graph

°F

Amiens temperature yesterday

Maximum temperature yesterday: 48 °F (at 3:30 AM)
Minimum temperature yesterday: 34 °F (at 10:00 PM)
Average temperature yesterday: 40 °F

Past Weeks' High & Low Weather Summary

 TemperatureHumidityPressure
High55 °F (Dec 18, 10:30 AM)100% (Dec 13, 3:00 PM)30.51 "Hg (Dec 13, 3:00 PM)
Low27 °F (Dec 14, 2:00 AM)69% (Dec 28, 1:00 PM)29.50 "Hg (Dec 27, 5:30 AM)
Average43 °F90%30.12 "Hg
* Reported Dec 13 1:00 PM — Dec 28 1:00 PM, Amiens, Weather by CustomWeather, © 2014

Note: Actual official high and low records may vary slightly from our data, if they occured in-between our weather recording intervals... More about our weather records

Advertising

Amiens weather history for previous 24 hours

 ConditionsComfort  
Time TempWeatherWind HumidityBarometerVisibility
1:00 PM
Dec 28
30 °FClear.17 mph69%30.30 "HgN/A
12:30 PM30 °FPassing clouds.18 mph75%30.30 "HgN/A
12:00 PM28 °FPassing clouds.20 mph80%30.27 "HgN/A
11:30 AM28 °FPassing clouds.21 mph80%30.24 "HgN/A
11:00 AM27 °FScattered clouds.21 mph80%30.24 "HgN/A
10:30 AM27 °FPartly sunny.20 mph80%30.21 "HgN/A
10:00 AM28 °FPartly sunny.16 mph80%30.18 "HgN/A
9:30 AM28 °FPartly sunny.20 mph74%30.12 "HgN/A
9:00 AM28 °FPartly sunny.22 mph74%30.09 "HgN/A
8:30 AM28 °FPassing clouds.21 mph74%30.07 "HgN/A
8:00 AM28 °FPassing clouds.22 mph80%30.04 "HgN/A
7:30 AM28 °FPassing clouds.24 mph80%30.01 "HgN/A
7:00 AM30 °FPassing clouds.23 mph75%29.98 "HgN/A
6:30 AM30 °FPassing clouds.21 mph80%29.95 "HgN/A
6:00 AM30 °FPassing clouds.21 mph80%29.95 "HgN/A
5:30 AM32 °FPassing clouds.22 mph75%29.92 "HgN/A
5:00 AM32 °FPassing clouds.18 mph75%29.89 "HgN/A
4:30 AM32 °FMostly cloudy.18 mph80%29.89 "HgN/A
4:00 AM32 °FPassing clouds.17 mph80%29.86 "HgN/A
3:30 AM34 °FMostly cloudy.17 mph75%29.86 "HgN/A
3:00 AM34 °FMostly cloudy.17 mph87%29.83 "HgN/A
2:30 AM34 °FPassing clouds.18 mph87%29.80 "HgN/A
2:00 AM34 °FSnow. Fog.15 mph93%29.77 "Hg2 mi
1:30 AM34 °FLight snow. Mostly cloudy.16 mph93%29.77 "Hg4 mi
1:00 AM36 °FOvercast.16 mph81%29.74 "HgN/A
12:30 AM36 °FMostly cloudy.15 mph81%29.74 "HgN/A
12:00 AM36 °FMostly cloudy.15 mph87%29.71 "HgN/A
11:30 PM
Dec 27
36 °FOvercast.16 mph87%29.71 "HgN/A
11:00 PM36 °FOvercast.15 mph93%29.71 "HgN/A
10:30 PM36 °FMostly cloudy.14 mph93%29.68 "HgN/A
10:00 PM34 °FPassing clouds.15 mph93%29.68 "HgN/A
9:30 PM36 °FPassing clouds.16 mph87%29.68 "HgN/A
9:00 PM36 °FLight rain. Passing clouds.18 mph93%29.68 "HgN/A
8:30 PM36 °FLight rain. Mostly cloudy.17 mph93%29.68 "HgN/A
8:00 PM36 °FLight rain. Mostly cloudy.16 mph93%29.68 "HgN/A
7:30 PM36 °FLight rain. Passing clouds.16 mph93%29.65 "HgN/A
7:00 PM36 °FRain. Partly cloudy.10 mph100%29.65 "HgN/A
6:30 PM36 °FLight rain. Passing clouds.14 mph100%29.65 "HgN/A
6:00 PM36 °FLight rain. Partly cloudy.21 mph93%29.65 "Hg5 mi
5:30 PM37 °FLight rain. Fog.17 mph87%29.65 "Hg2 mi
5:00 PM39 °FPartly cloudy.20 mph81%29.62 "HgN/A
4:30 PM39 °FMore clouds than sun.21 mph81%29.62 "HgN/A
4:00 PM39 °FLight rain. Mostly cloudy.24 mph81%29.62 "HgN/A
3:30 PM41 °FOvercast.24 mph76%29.62 "HgN/A
3:00 PM41 °FOvercast.26 mph76%29.59 "HgN/A
2:30 PM41 °FMostly cloudy.28 mph76%29.59 "HgN/A
2:00 PM41 °FMostly cloudy.29 mph81%29.59 "HgN/A
Weather by CustomWeather, © 2014

See weather overviewHow to use our weather pages